Weather History for Barking Sands, HI

Change the Weather History Date:

Saturday, August 23, 2014

  Actual Average Record
Temperature  
Mean Temperature 78 °F -  
Max Temperature 84 °F 88 °F 91 °F (1967)
Min Temperature 72 °F 67 °F 64 °F (1955)
Cooling Degree Days 13    
Growing Degree Days 28 (Base 50)    
Moisture  
Dew Point 45 °F    
Average Humidity 36    
Maximum Humidity 64    
Minimum Humidity 14    
Precipitation  
Precipitation 0.00 in - - ()
Sea Level Pressure  
Sea Level Pressure 29.97 in    
Wind  
Wind Speed 4 mph (ENE)    
Max Wind Speed 10 mph    
Max Gust Speed 21 mph    
Visibility 10 miles    
Events Rain    
Averages and records for this station are not official NWS values.
T = Trace of Precipitation, MM = Missing Value Source: NWS Daily Summary

Daily Weather History Graph

Daily Weather History Graph

Search for Another Location

Airport:

Trip Planner

Search our weather history database for the weather conditions in past years. The results will help you decide how hot, cold, wet, or windy it might be!

Date:

Astronomy

Aug. 23, 2014 Rise Set
Actual Time 6:19 AM HST 7:03 PM HST
Civil Twilight 5:56 AM HST 7:26 PM HST
Nautical Twilight 5:29 AM HST 7:53 PM HST
Astronomical Twilight 5:02 AM HST 8:20 PM HST
Moon 4:50 AM HST (8/23) 5:54 PM HST (8/23)
Length of Visible Light 13h 29m
Length of Day
12h 44m
Waning Crescent, 3% of the Moon is Illuminated
Aug 23
Waning Crescent
Aug 25
New
Sep 2
First Quarter
Sep 8
Full
Sep 15
Last Quarter

Hourly Weather History & Observations

Time (HST) Temp. Heat Index Dew Point Humidity Pressure Visibility Wind Dir Wind Speed Gust Speed Precip Events Conditions
12:56 AM 73.0 °F - 28.0 °F 19% 30.02 in 10.0 mi East 3.5 mph - N/A   Clear
1:56 AM 72.0 °F - 37.9 °F 29% 30.01 in 10.0 mi East 3.5 mph - N/A   Clear
2:56 AM 73.0 °F - 60.1 °F 64% 29.99 in 10.0 mi ENE 5.8 mph - N/A   Clear
3:56 AM 72.0 °F - 59.0 °F 64% 29.98 in 10.0 mi ENE 5.8 mph - N/A   Clear
4:56 AM - - - N/A% 29.98 in 10.0 mi East 4.6 mph - N/A   Clear
5:56 AM - - - N/A% 29.99 in 10.0 mi ESE 3.5 mph - N/A   Clear
6:56 AM 73.0 °F - 28.9 °F 20% 30.00 in 10.0 mi ENE 4.6 mph - N/A   Partly Cloudy
7:56 AM 79.0 °F - 28.0 °F 15% 30.00 in 10.0 mi Calm Calm - N/A   Clear
8:56 AM 80.1 °F - 28.9 °F 15% 30.00 in 10.0 mi West 4.6 mph - N/A   Clear
9:56 AM 82.0 °F - 30.0 °F 15% 30.00 in 10.0 mi West 5.8 mph - N/A   Clear
10:56 AM 82.0 °F - 30.0 °F 15% 29.99 in 10.0 mi WSW 4.6 mph - N/A   Mostly Cloudy
11:56 AM 82.0 °F - 30.9 °F 16% 29.98 in 10.0 mi Variable 4.6 mph - N/A   Overcast
12:56 PM 84.9 °F - 30.9 °F 14% 29.96 in 10.0 mi NNW 9.2 mph - N/A   Mostly Cloudy
1:56 PM 84.0 °F 87.8 °F 69.1 °F 61% 29.94 in 10.0 mi West 4.6 mph - N/A   Overcast
2:56 PM 84.9 °F - 41.0 °F 21% 29.91 in 10.0 mi North 9.2 mph 20.7 mph N/A   Mostly Cloudy
3:56 PM 82.9 °F - 39.0 °F 21% 29.91 in 10.0 mi SSE 5.8 mph - 0.00 in Rain Light Rain
4:56 PM 82.0 °F - 48.9 °F 31% 29.91 in 10.0 mi WSW 5.8 mph - 0.00 in   Scattered Clouds
5:56 PM 82.0 °F - 48.9 °F 31% 29.91 in 10.0 mi SW 10.4 mph - N/A   Clear
6:56 PM 81.0 °F 83.0 °F 66.0 °F 60% 29.91 in 10.0 mi Calm Calm - N/A   Scattered Clouds
7:56 PM 79.0 °F - 64.0 °F 60% 29.95 in 10.0 mi Calm Calm - N/A   Scattered Clouds
8:56 PM 75.9 °F - 57.9 °F 54% 29.97 in 10.0 mi ENE 3.5 mph - N/A   Clear
9:56 PM 75.0 °F - 57.9 °F 55% 29.98 in 10.0 mi Calm Calm - N/A   Partly Cloudy
10:56 PM 75.9 °F - 57.0 °F 52% 29.98 in 10.0 mi Calm Calm - N/A   Clear
11:56 PM 75.0 °F - 57.0 °F 53% 29.98 in 10.0 mi Calm Calm - N/A   Partly Cloudy